Flag for Germany Weather past 2 weeks in Böblingen, Baden-Württemberg, Germany

Now
86 °F

Passing clouds.


Feels Like: 87 °F
Forecast: 62 / 80 °F
Wind: 9 mph from West

Location: Stuttgart-Echterdingen

Current Time: Jul 5, 2015 at 11:12:26 PM

Latest Report: Jul 5, 2015 at 10:20 PM


Visibility: N/A

Pressure: 29.98 "Hg

Humidity: 46%

Dew point: 63 °F

Location of BöblingenLocation

Historic Weather in Böblingen — Graph

°F

Böblingen temperature yesterday

Maximum temperature yesterday: 95 °F (at 2:50 PM)
Minimum temperature yesterday: 64 °F (at 5:20 AM)
Average temperature yesterday: 81 °F

Past Weeks' High & Low Weather Summary

 TemperatureHumidityPressure
High99 °F (Jul 5, 4:20 PM)100% (Jun 22, 3:20 AM)30.27 "Hg (Jun 22, 3:20 AM)
Low46 °F (Jun 24, 4:50 AM)22% (Jul 4, 6:20 PM)29.74 "Hg (Jun 22, 8:50 PM)
Average68 °F68%30.12 "Hg
* Reported Jun 20 9:20 PM — Jul 5 9:50 PM, Böblingen, Weather by CustomWeather, © 2015

Note: Actual official high and low records may vary slightly from our data, if they occured in-between our weather recording intervals... More about our weather records

Advertising

Böblingen weather history for previous 24 hours

 ConditionsComfort  
Time TempWeatherWind HumidityBarometerVisibility
9:50 PM
Sun, Jul 5
88 °FPassing clouds.6 mph43%29.95 "HgN/A
9:20 PM88 °FPassing clouds.5 mph43%29.95 "HgN/A
8:50 PM88 °FPassing clouds.5 mph40%29.92 "HgN/A
8:20 PM90 °FPassing clouds.6 mph38%29.92 "HgN/A
7:50 PM93 °FPassing clouds.6 mph32%29.92 "HgN/A
7:20 PM95 °FPassing clouds.6 mph28%29.92 "HgN/A
6:50 PM95 °FPassing clouds.5 mph26%29.92 "HgN/A
6:20 PM97 °FPassing clouds.6 mph27%29.92 "HgN/A
5:50 PM97 °FPassing clouds.7 mph30%29.95 "HgN/A
5:20 PM97 °FPassing clouds.3 mph28%29.95 "HgN/A
4:50 PM97 °FPassing clouds.6 mph28%29.95 "HgN/A
4:20 PM99 °FSunny.5 mph24%29.98 "Hg10 mi
3:50 PM97 °FPassing clouds.7 mph28%29.98 "HgN/A
3:20 PM97 °FPassing clouds.6 mph30%29.98 "HgN/A
2:50 PM97 °FPassing clouds.7 mph28%30.01 "HgN/A
2:20 PM97 °FPassing clouds.6 mph28%30.01 "HgN/A
1:50 PM95 °FSunny.6 mph32%30.04 "Hg10 mi
1:20 PM95 °FSunny.6 mph30%30.04 "Hg10 mi
12:50 PM93 °FSunny.3 mph36%30.04 "Hg10 mi
12:20 PM93 °FPassing clouds.5 mph32%30.04 "HgN/A
11:50 AM91 °FPassing clouds.5 mph41%30.04 "HgN/A
11:20 AM90 °FPassing clouds.5 mph46%30.07 "HgN/A
10:50 AM90 °FPassing clouds.3 mph43%30.07 "HgN/A
10:20 AM86 °FSunny.2 mph52%30.07 "Hg10 mi
9:50 AM84 °FPassing clouds.3 mph62%30.07 "HgN/A
9:20 AM81 °FPassing clouds.3 mph66%30.09 "HgN/A
8:50 AM79 °FPassing clouds.3 mph70%30.09 "HgN/A
8:20 AM75 °FSunny.2 mph74%30.09 "Hg10 mi
7:50 AM73 °FSunny.1 mph78%30.09 "Hg10 mi
7:20 AM72 °FSunny.No wind83%30.09 "Hg10 mi
6:50 AM70 °FSunny.2 mph83%30.09 "Hg10 mi
6:20 AM66 °FClear.No wind88%30.09 "Hg10 mi
5:50 AM66 °FClear.1 mph88%30.09 "Hg10 mi
5:20 AM66 °FClear.1 mph88%30.09 "Hg10 mi
4:50 AM68 °FClear.2 mph83%30.09 "Hg10 mi
4:20 AM68 °FClear.1 mph88%30.09 "Hg10 mi
3:50 AM68 °FClear.1 mph83%30.12 "Hg10 mi
3:20 AM70 °FClear.3 mph83%30.12 "Hg10 mi
2:50 AM70 °FClear.2 mph78%30.12 "Hg10 mi
2:20 AM72 °FClear.3 mph73%30.12 "Hg10 mi
1:50 AM72 °FClear.1 mph78%30.12 "Hg10 mi
1:20 AM73 °FClear.1 mph74%30.12 "Hg10 mi
12:50 AM73 °FClear.2 mph74%30.12 "Hg10 mi
12:20 AM75 °FClear.1 mph65%30.12 "Hg10 mi
11:50 PM
Sat, Jul 4
77 °FPassing clouds.3 mph61%30.12 "HgN/A
11:20 PM81 °FPassing clouds.3 mph51%30.12 "HgN/A
Weather by CustomWeather, © 2015

See weather overviewHow to use our weather pages